Regional Weather Roundup
Issued by NWS Northern Indiana

Home | Current Version | Previous Version | Text Only | Print | Product List | Glossary Off
Versions: 1 2 3 4 5 6 7 8 9 10 11 12 13 14 15 16 17 18 19 20 21 22 23 24 25 26 27 28 29 30 31 32 33 34 35 36 37 38 39 40 41 42 43 44 45 46 47 48 49 50

000
ASUS43 KIWX 280300
RWRIWX

KIWX WEATHER ROUNDUP
NATIONAL WEATHER SERVICE NORTHERN INDIANA
1100 PM EDT SUN JUL 27 2014

NOTE: "FAIR" INDICATES FEW OR NO CLOUDS BELOW 12,000 FEET WITH NO
SIGNIFICANT WEATHER AND/OR OBSTRUCTIONS TO VISIBILITY.

* THESE STATIONS ARE NOT UNDER NWS QUALITY CONTROL. THEY ALSO MAY NOT
  REPORT WEATHER SUCH AS PRECIPITATION OR FOG.

INZ001>027-280400-
NORTHERN INDIANA

CITY           SKY/WX    TMP DP  RH WIND       PRES   REMARKS
GARY*          LGT RAIN  66  63  88 NW14      29.87R
VALPARAISO     CLOUDY    66  59  78 NW6       29.86R
SOUTH BEND     CLEAR     65  58  78 NW15G22   29.82R
GOSHEN         CLEAR     67  56  67 NW13      29.79R
ANGOLA*        PTCLDY    64  55  72 W3        29.77S
FORT WAYNE     PTCLDY    66  57  72 W9        29.79R
PERU/GRISSOM   CLOUDY    68  63  82 NW7       29.83R

$$
INZ028>050-280400-
CENTRAL INDIANA

CITY           SKY/WX    TMP DP  RH WIND       PRES   REMARKS
LAFAYETTE      CLEAR     66  58  75 W8        29.85R
KOKOMO*        CLOUDY    68  59  73 NW9G18    29.83R
MUNCIE*        CLOUDY    70  56  61 NW18      29.82R
INDIANAPOLIS   PTCLDY    69  57  65 W15       29.85R

$$
MIZ043>046-050>051-056>058-064>065-071>073-077>080-280400-
SOUTHWEST LOWER MICHIGAN

CITY           SKY/WX    TMP DP  RH WIND       PRES   REMARKS
BATTLE CREEK   CLOUDY    64  61  90 NW7       29.77R
BENTON HARBOR  CLOUDY    63  59  87 NW10G21   29.82R
COLDWATER*     MOCLDY    65  62  88 W3        29.77R
HILLSDALE*     MOCLDY    61  61 100 CALM      29.76R
HOLLAND        CLOUDY    63  60  90 NW10      29.79R
GRAND RAPIDS   MOCLDY    64  61  90 CALM      29.78R
KALAMAZOO      MOCLDY    64  57  78 NW12      29.78R
STURGIS*       MOCLDY    64  61  88 NW6       29.78R
THREE RIVERS*  FAIR      65  60  83 NW7       29.79R

$$
OHZ001>008-015>018-024>025-280400-
NORTHWEST OHIO

CITY           SKY/WX    TMP DP  RH WIND       PRES   REMARKS
DEFIANCE       MOCLDY    65  61  87 CALM      29.75R
FINDLAY        MOCLDY    67  62  84 N7        29.73R
TOLEDO EXPRESS PTCLDY    61  56  83 S3        29.72S
TOLEDO METCALF PTCLDY    65  57  75 SW6       29.72S
LIMA           CLOUDY    68  65  90 NW9       29.76R

$$
&&


USA.gov is the U.S. government's official web portal to all federal, state and local government web resources and services.